Cloud_Cover
48 5 54 100 100 100 100 100 100 100 100 20 7 99 100 100 99 67 12 5 1 5 5 1 0 5 97 24 0 0 5 2 49 89 100 100 100 100 100 100 100 100 100 100
5 40 100 39 32 95 100 100 100 100 100 38 15 20 100 100 56 17 4 2 4 3 0 0 5 4 0 0 0 0 0 1 30 8 99 100 100 100 100 100 100 100 100 100
100 92 63 23 53 54 99 100 100 100 100 86 23 28 100 100 32 5 0 0 0 0 0 2 1 0 0 0 0 0 6 0 28 65 100 81 81 98 100 100 100 100 100 100
8 78 92 99 80 73 29 100 100 100 100 100 90 4 36 93 99 7 5 6 5 6 2 0 0 0 0 29 43 0 14 92 100 78 100 100 30 75 100 100 97 100 100 100
5 18 8 28 98 34 94 51 43 96 100 79 83 99 5 100 100 70 68 100 97 19 0 1 47 76 97 89 100 58 100 100 100 100 100 100 85 100 100 60 100 100 100 100
84 38 61 98 93 99 99 100 100 88 57 5 95 24 5 100 100 100 100 100 20 10 31 98 100 100 100 100 100 92 100 100 100 100 100 100 13 100 91 90 99 100 100 100
100 100 100 100 100 100 100 100 96 59 18 6 76 5 98 100 100 100 100 21 3 2 9 98 99 100 100 100 100 100 100 100 75 100 100 99 94 99 63 90 100 100 100 100
100 100 100 100 100 100 100 96 97 6 18 57 99 99 100 100 100 100 98 1 1 5 84 93 100 100 100 100 100 100 100 100 100 100 100 100 100 100 100 100 100 100 100 100
100 100 100 100 100 100 100 89 100 100 100 100 100 100 100 100 100 92 7 0 2 16 98 100 100 100 100 100 100 100 100 100 100 100 100 100 100 100 100 100 100 100 100 100
100 100 100 100 100 98 100 100 100 100 100 100 100 100 76 63 16 3 70 50 56 96 100 100 100 100 100 100 100 100 100 100 100 100 100 100 100 100 100 100 100 100 100 100
100 100 100 100 100 100 100 100 100 100 99 86 25 5 57 74 46 77 100 100 94 99 100 100 100 100 100 100 100 100 100 100 100 100 100 100 100 100 100 100 100 100 100 100
100 100 100 100 100 100 100 100 86 27 53 53 98 20 6 17 73 100 100 100 100 100 100 100 100 100 100 100 100 100 100 100 100 100 100 100 100 100 100 100 100 100 89 66
100 100 100 100 100 100 100 100 69 15 11 14 67 3 17 27 87 92 100 100 100 100 100 100 100 100 100 100 100 100 100 100 100 100 100 100 100 100 100 100 100 100 100 55
100 100 100 100 100 100 100 100 100 100 100 57 4 2 5 4 99 100 100 100 100 100 100 100 100 100 100 100 100 100 100 100 100 100 100 100 100 100 100 100 100 100 100 100
100 100 100 100 100 100 100 100 100 94 5 4 0 0 0 1 69 100 100 100 100 100 99 100 100 100 100 100 100 100 100 100 100 100 100 100 100 100 100 100 100 100 100 100
99 100 100 100 81 26 6 5 5 2 31 28 0 0 0 64 100 100 100 100 100 100 100 100 100 100 100 100 100 100 100 100 100 100 100 100 100 100 100 100 100 100 100 100
100 100 100 100 36 5 0 5 41 52 29 44 99 2 5 100 100 100 100 100 100 100 100 100 100 100 100 100 100 100 100 100 100 100 100 100 100 100 100 100 100 100 100 100
72 84 38 5 4 0 3 36 48 60 68 100 61 41 90 100 100 100 100 100 100 100 100 100 100 100 100 100 100 100 100 100 100 100 100 100 100 100 100 100 100 100 100 100
5 21 18 5 51 1 9 52 93 92 98 100 100 100 100 100 100 100 100 100 100 100 100 100 100 100 100 100 100 100 100 100 100 100 100 100 100 100 100 100 100 100 100 100
15 99 80 94 92 76 86 57 100 100 100 100 100 100 100 100 100 100 100 100 100 100 100 97 99 100 100 100 100 100 100 100 100 100 100 100 100 100 100 100 100 100 100 100
73 96 81 100 100 68 100 100 88 100 100 100 100 100 100 100 100 100 100 100 100 100 100 100 100 100 100 100 100 100 100 100 100 100 100 100 100 100 100 100 100 100 100 100
95 99 99 98 91 90 100 100 98 100 100 100 100 100 100 100 100 100 100 100 100 100 100 100 100 100 100 100 100 100 100 100 100 100 100 100 100 100 100 100 100 100 100 100
72 98 68 92 95 92 100 100 100 100 100 100 100 100 100 100 100 100 100 100 100 100 100 100 100 98 96 99 100 100 100 100 100 100 100 100 100 100 100 100 100 100 100 100
97 100 96 97 100 100 100 100 100 100 100 100 100 100 100 100 100 100 100 100 100 100 100 100 94 99 100 100 100 100 89 98 100 100 100 100 100 100 100 100 100 100 100 100
100 84 100 100 100 100 100 100 100 100 100 100 100 100 100 100 100 100 100 100 100 100 100 94 98 100 100 100 100 96 92 81 88 100 100 100 100 100 100 100 100 100 100 100
100 94 95 100 100 100 100 100 100 100 100 100 100 100 100 100 100 100 100 100 98 100 93 82 88 79 98 90 92 97 82 81 87 98 100 100 100 100 100 99 95 100 100 91